Location: Theodore Roosevelt National Park
(46.9990°N, 103.4631°W)
Time: 23:43:12
(UTC-06:00)

Iridium 37 - Visible Passes

Search period start: 19 April 2014 00:00
Search period end: 29 April 2014 00:00
Orbit: 776 x 779 km, 86.4° (Epoch: 19 April)

Date Brightness Start Highest point End Pass type
(mag) Time Alt. Az. Time Alt. Az. Time Alt. Az.
19 Apr 6.8 03:26:16 10° N 03:31:08 38° E 03:35:58 10° SSE visible
19 Apr 6.4 05:07:16 10° NNW 05:11:43 29° W 05:16:09 10° SW visible
20 Apr 7.7 02:53:16 10° NNE 02:57:21 23° ENE 03:01:25 10° SE visible
20 Apr 5.7 04:33:21 10° NNW 04:38:23 51° W 04:43:23 10° SSW visible
21 Apr 8.2 02:20:55 10° NE 02:23:25 13° ENE 02:25:55 10° E visible
21 Apr 5.5 03:59:41 10° N 04:04:56 88° W 04:09:51 12° S visible
22 Apr 6.2 03:26:14 10° N 03:31:21 53° E 03:35:59 12° SSE visible
22 Apr 6.8 05:07:48 10° NNW 05:11:39 21° W 05:15:30 10° SW visible
23 Apr 7.1 02:53:01 10° NNE 02:57:38 31° ENE 03:02:09 10° SE visible
23 Apr 6.2 04:33:39 10° NNW 04:38:24 36° W 04:42:36 13° SSW visible
24 Apr 7.9 02:20:11 10° NNE 02:23:48 19° ENE 02:27:23 10° ESE visible
24 Apr 5.5 03:59:51 10° N 04:05:00 63° W 04:08:49 18° SSW visible
25 Apr 8.3 01:48:41 10° NE 01:49:48 11° ENE 01:50:55 10° ENE visible
25 Apr 5.6 03:26:16 10° N 03:31:30 75° E 03:35:03 21° S visible
25 Apr 7.2 05:08:35 10° NW 05:11:33 15° WNW 05:14:30 10° WSW visible
26 Apr 6.5 02:52:54 10° N 02:57:52 43° E 03:01:19 19° SE visible
26 Apr 6.6 04:34:05 10° NNW 04:38:21 26° W 04:41:46 14° SW visible
27 Apr 7.4 02:19:48 10° NNE 02:24:06 25° ENE 02:27:37 13° SE visible
27 Apr 5.9 04:00:05 10° NNW 04:05:02 45° W 04:08:04 22° SSW visible
28 Apr 8.0 01:47:14 10° NE 01:50:12 15° ENE 01:53:09 10° ESE visible
28 Apr 5.4 03:26:22 10° N 03:31:36 79° W 03:34:23 28° S visible
